Location: Unspecified
(22.6800°N, 112.2000°E)
Time: 15:39:44
(UTC+08:00)

S-56A Canister/Altair - Pass Details

Date: 30 July 2021
Orbit: 632 x 2500 km, 38.9° (Epoch: 24 September)

Event Time Altitude Azimuth Distance (km) Brightness Sun altitude
Rises 12:07:14 0° 194° (SSW) 4,535 11.5 81.7°
Reaches altitude 10° 12:10:33 10° 182° (S) 3,831 11.3 82.4°
Maximum altitude 12:19:01 28° 128° (SE) 3,227 11.3 83.9°
Drops below altitude 10° 12:29:45 10° 77° (ENE) 4,971 11.8 85.4°
Sets 12:34:45 0° 68° (ENE) 6,117 12.1 85.7°
